Location: Unspecified
(0.0000°N, 0.0000°E)
Time: 08:48:49
(UTC+00:00)

Vanguard 2 - Pass Details

Date: 12 December 2017
Orbit: 552 x 2940 km, 32.9° (Epoch: 16 January)

Event Time Altitude Azimuth Distance (km) Brightness Sun altitude
Rises 03:17:21 0° 256° (WSW) 4,630 - -35.4°
Reaches altitude 10° 03:21:12 10° 240° (WSW) 4,037 - -34.6°
Exits shadow 03:23:22 15° 229° (SW) 3,844 10.9 -34.1°
Maximum altitude 03:29:11 21° 196° (SSW) 3,892 11.1 -32.8°
Drops below altitude 10° 03:39:41 10° 153° (SSE) 5,418 12.4 -30.5°
Sets 03:46:16 0° 139° (SE) 6,685 13.3 -29.0°
